Wind_Speed
16 18 18 18 17 17 17 17 16 16 16 16 16 16 17 17 17 17 17 17 17 17 17 17 17 18 17 17 17 16 16 16 17 17 18 18 19 19 19 19 19 19 19 19 19 19 18 18 18 17 17 16 15 15 16 16 16 17 18 19 20 21 20 18 17 15 12 11 10 10 10 10 11 12 12 12 11 11 12 14 17 18 17 15 14 13
15 16 17 18 18 17 18 18 17 16 16 16 16 17 16 16 17 17 17 16 16 16 16 17 17 17 17 16 16 16 16 17 17 18 18 19 20 20 20 20 20 20 19 19 19 19 19 18 17 17 17 16 15 15 16 16 16 17 18 19 20 21 20 18 16 13 11 10 10 10 11 11 12 13 14 14 14 14 15 16 18 17 15 14 13 12
15 16 17 18 18 18 18 18 18 17 16 16 16 16 16 16 16 17 17 17 17 17 17 17 18 18 18 18 18 18 18 18 19 19 20 20 21 22 22 22 21 21 20 20 20 19 19 18 17 17 16 16 16 16 16 17 17 18 19 20 20 20 19 17 14 12 11 10 11 12 12 13 14 15 15 16 17 17 17 18 18 17 15 14 13 12
15 16 18 19 19 19 19 18 17 17 17 17 17 17 16 16 17 17 17 17 18 18 19 19 19 19 20 20 20 20 20 20 21 21 22 22 23 23 24 23 23 22 21 21 20 19 18 18 17 17 16 16 16 17 18 19 19 20 20 21 20 19 17 15 13 12 11 11 12 13 13 14 14 14 15 17 18 19 19 19 18 16 15 14 13 13
15 16 18 19 20 20 20 18 17 17 17 18 18 18 18 18 18 18 19 19 19 19 19 20 20 21 21 21 22 22 22 22 23 23 24 24 25 25 25 25 24 23 22 21 21 20 18 18 17 17 17 16 17 18 19 21 21 22 22 21 20 18 16 14 13 13 13 12 12 13 14 14 13 13 14 16 18 19 19 19 18 17 16 15 14 13
15 17 18 20 21 21 21 19 18 17 17 18 19 19 20 20 20 20 20 20 20 20 20 20 21 21 22 22 23 23 23 23 24 25 25 26 27 27 27 26 25 24 23 22 21 20 19 18 18 18 17 17 18 19 22 23 23 23 23 21 19 17 16 14 14 14 14 14 14 14 15 14 13 12 13 15 17 19 20 20 20 19 18 17 15 14
15 17 18 20 22 23 22 21 20 19 18 18 18 19 20 21 21 21 21 21 21 21 21 22 22 23 23 23 23 23 24 24 25 25 26 27 27 27 27 26 25 25 24 23 22 21 20 19 19 19 18 17 19 21 23 25 25 24 23 20 19 17 17 16 15 16 16 16 16 15 15 15 15 14 14 15 16 18 19 20 21 22 21 20 18 16
16 17 19 20 21 23 24 24 23 22 20 19 19 19 20 20 21 21 21 22 22 23 23 23 24 24 24 24 24 24 24 25 25 26 27 27 27 27 26 25 25 24 24 23 23 22 20 20 20 19 19 19 20 22 25 26 26 24 22 20 19 18 18 17 17 17 17 17 17 16 16 16 16 16 16 17 17 18 18 19 20 21 22 21 20 18
17 17 19 20 21 22 23 25 25 24 22 21 20 19 19 20 21 21 22 22 23 24 24 24 24 25 24 24 23 23 23 24 25 25 26 26 26 25 25 24 23 23 23 23 22 22 21 21 21 21 20 20 21 23 25 26 26 24 22 20 19 19 19 19 18 18 18 18 17 17 16 16 17 18 18 19 20 19 18 18 18 19 19 19 18 17
19 18 19 21 23 23 21 23 24 25 23 21 20 19 18 18 19 19 20 21 23 23 23 22 23 23 23 22 21 20 20 21 22 23 24 24 24 23 23 22 22 22 22 22 22 21 21 21 22 22 22 22 23 24 25 26 25 24 22 21 21 21 20 20 19 19 18 18 17 17 17 17 18 19 20 20 21 20 20 19 18 18 17 17 16 15
18 18 18 18 21 22 22 22 22 23 22 21 20 19 20 19 18 17 16 18 19 20 20 20 20 20 20 20 19 18 18 18 19 20 21 21 22 22 21 21 21 22 22 21 21 21 21 22 22 23 24 24 25 25 26 26 26 24 23 23 22 22 21 20 19 19 18 18 17 17 18 19 20 21 21 22 22 21 21 20 19 18 17 16 15 13
16 16 16 16 17 18 21 22 23 22 21 18 16 16 18 20 20 17 16 16 17 17 17 18 19 19 19 19 19 18 18 18 18 18 19 19 20 20 20 21 21 22 21 21 20 21 21 21 21 23 25 27 27 27 27 27 26 25 24 24 23 22 21 20 19 18 17 17 17 18 19 21 22 23 23 23 23 23 23 22 21 20 19 17 15 13
17 16 15 15 16 17 18 20 20 19 18 16 14 14 16 17 17 17 16 17 18 17 16 16 18 20 20 20 19 19 19 19 19 19 19 20 20 19 19 20 21 21 21 20 20 20 19 19 20 22 25 28 29 29 28 27 26 25 24 24 23 22 21 19 18 18 17 17 17 18 20 22 23 25 25 25 25 25 24 23 22 21 20 18 16 14
16 15 14 14 15 17 18 19 18 17 17 18 19 18 17 16 15 15 16 17 18 18 16 16 18 19 20 21 20 20 20 20 20 21 21 21 21 20 19 19 20 21 20 20 19 19 18 18 20 23 26 28 28 28 28 27 26 24 24 23 22 21 20 19 18 17 17 17 17 19 20 22 24 25 26 26 26 25 24 24 23 21 19 18 16 14
15 14 12 13 14 16 18 19 19 20 20 21 21 20 19 17 16 15 15 16 17 16 15 16 17 19 20 20 20 19 18 18 19 21 22 23 22 21 19 19 20 20 20 20 19 19 18 18 20 23 26 27 27 27 26 25 24 23 23 22 22 21 20 19 18 17 17 17 18 19 21 23 24 26 26 26 25 25 24 23 22 20 18 16 15 13
16 15 13 13 14 17 19 19 20 21 22 22 21 19 18 17 17 16 16 16 15 14 12 12 13 14 16 16 15 14 14 16 18 19 21 22 22 21 19 19 19 20 20 20 19 19 19 20 21 24 26 27 27 26 25 24 23 22 22 22 21 21 20 19 18 17 17 18 18 20 21 23 24 26 26 25 25 24 23 21 20 19 17 16 14 13
17 16 15 14 15 17 19 20 21 22 22 22 21 20 19 18 17 17 16 16 15 13 12 10 7 5 7 11 11 9 9 11 14 17 18 20 20 19 18 18 19 20 20 20 20 20 21 21 22 24 25 26 26 25 24 23 23 22 22 22 22 21 21 19 19 18 18 18 19 20 21 23 24 25 25 24 23 22 21 20 19 17 16 15 14 13
16 17 17 16 16 17 18 20 22 23 22 21 21 20 20 19 19 19 19 17 15 13 12 11 8 5 4 8 8 5 6 7 10 13 15 16 17 17 16 17 19 20 20 21 22 22 22 23 23 24 25 26 26 26 25 24 23 23 23 23 23 22 21 20 19 18 18 18 19 20 22 23 24 24 24 23 22 21 20 19 18 17 16 14 13 12
16 17 17 18 19 19 19 20 21 21 21 20 20 19 19 19 20 19 19 19 18 16 14 12 11 11 10 12 11 9 8 7 9 11 13 13 14 14 14 15 17 19 20 22 23 23 23 24 24 24 25 25 26 26 26 25 24 24 24 24 23 23 22 21 20 19 18 19 20 21 22 23 23 23 23 22 21 20 19 18 17 16 15 14 13 12
17 18 20 20 20 20 20 21 23 24 24 23 22 20 19 19 19 20 19 19 19 18 17 15 13 13 14 15 15 13 11 10 10 11 12 12 13 14 13 14 16 18 21 22 24 24 25 25 25 25 26 26 27 27 27 26 25 25 25 25 24 24 23 21 20 19 19 19 20 22 23 23 23 22 22 21 20 19 18 17 16 15 14 13 13 12
19 19 20 21 20 20 20 22 26 28 27 26 24 22 21 20 19 19 20 19 19 19 17 16 16 17 17 16 15 15 14 13 13 12 11 11 12 14 14 14 16 18 21 22 24 25 26 26 27 27 27 28 28 28 28 27 26 26 26 26 25 24 23 22 20 19 19 20 21 22 22 22 21 21 20 19 18 17 16 15 14 13 12 12 11 11
19 19 20 20 21 22 21 23 26 28 28 26 24 22 21 20 19 19 20 20 19 19 18 18 19 19 19 18 17 17 16 16 15 14 10 9 11 14 15 14 15 18 20 22 24 25 26 27 28 29 29 29 29 29 29 28 28 27 27 27 26 25 23 22 21 20 20 21 21 22 21 21 20 19 18 17 16 15 14 12 11 11 10 10 9 9
21 21 21 20 21 22 22 22 23 23 24 24 24 23 22 22 21 21 21 22 22 21 21 21 20 20 20 20 20 20 19 18 17 15 11 8 9 12 14 14 15 18 20 21 23 24 26 27 28 29 30 30 30 30 30 29 29 29 28 28 27 25 24 22 21 21 21 21 21 21 21 19 18 17 17 16 14 13 11 10 9 9 8 8 8 8
22 23 22 21 20 20 20 20 20 20 21 22 23 24 24 24 24 24 24 24 24 23 22 21 20 19 20 21 21 21 21 20 19 17 14 11 10 10 11 13 15 18 19 20 21 23 25 26 28 29 29 30 30 30 30 30 30 30 29 28 27 25 24 23 22 21 21 21 21 20 20 18 17 16 16 14 13 12 10 9 9 8 8 8 8 8
23 23 22 23 22 21 19 19 19 19 20 21 22 23 24 25 26 25 24 23 23 22 20 18 16 15 17 19 20 21 22 21 20 18 15 12 10 10 11 13 15 17 17 19 20 22 24 25 27 28 29 29 30 30 31 31 31 30 30 29 27 26 24 23 22 21 21 21 20 20 19 17 16 16 15 14 13 11 10 10 9 9 9 9 9 9
24 24 24 25 25 24 24 23 23 22 22 23 23 23 24 24 25 25 23 21 20 19 17 13 11 12 14 15 16 19 21 22 22 21 19 13 9 9 12 13 15 16 17 18 19 21 22 24 26 27 28 29 29 29 31 31 31 30 30 29 27 26 24 23 22 21 21 20 20 19 18 17 16 15 15 14 13 11 11 10 10 10 10 10 10 10
24 24 25 25 25 26 25 25 24 24 24 25 25 25 24 24 23 21 19 19 19 18 16 11 8 8 11 12 14 17 20 22 22 23 22 18 12 9 12 14 16 17 17 18 19 20 21 23 25 27 28 29 29 28 29 30 30 30 30 29 28 26 25 24 23 21 21 20 19 18 17 16 16 15 15 14 13 12 11 11 10 10 10 11 11 11
23 23 24 25 25 26 26 25 25 25 25 26 26 26 26 24 22 19 18 19 20 19 16 12 8 6 7 10 13 16 19 21 23 23 23 20 14 10 12 14 16 17 18 16 18 20 21 22 24 26 28 29 29 28 28 29 29 30 29 29 28 27 26 24 23 22 21 20 19 18 17 16 16 16 15 14 13 12 11 11 11 11 12 12 12 12
22 22 23 24 25 25 26 26 26 26 26 27 27 27 26 25 24 22 21 21 20 19 17 16 14 11 9 11 13 15 18 20 23 24 22 19 14 12 13 14 16 18 18 14 13 15 18 21 23 25 27 28 29 28 26 27 28 28 28 28 28 27 26 25 24 23 21 20 19 18 17 17 16 16 16 15 14 13 12 12 12 13 13 13 13 13
20 21 22 23 24 24 25 25 26 26 26 27 28 28 27 26 26 26 25 24 22 20 18 17 16 14 11 8 7 8 12 19 23 24 23 18 13 12 13 15 17 19 18 12 6 5 10 17 22 25 27 28 29 29 27 27 27 28 28 27 27 27 26 25 24 23 22 20 19 18 18 17 17 16 16 15 14 13 13 13 13 14 15 14 14 14
19 21 22 23 23 23 24 24 25 25 26 27 28 29 29 28 27 27 26 25 24 23 20 18 17 16 14 7 3 3 5 17 24 25 24 20 16 14 16 17 19 21 21 15 6 1 3 9 16 23 27 29 30 30 29 28 28 28 28 28 27 26 25 25 24 23 22 20 19 19 18 17 17 17 16 16 15 14 14 14 14 15 15 15 15 14
20 21 21 22 23 23 23 23 24 25 25 26 27 29 30 29 29 29 28 28 27 26 23 21 19 18 18 13 9 6 6 16 23 25 25 21 18 17 19 19 19 21 23 21 13 5 3 3 9 17 25 28 30 30 30 29 29 29 29 29 28 27 25 25 24 23 22 21 19 19 18 17 17 17 17 16 16 15 15 14 15 15 16 16 15 15
21 22 22 22 23 23 23 23 23 24 24 25 26 27 29 30 31 31 32 31 30 29 26 24 21 19 19 19 18 15 15 17 21 24 25 23 19 18 19 19 20 20 22 23 19 11 6 5 6 10 19 27 30 31 31 31 30 30 30 30 29 28 26 25 24 24 23 22 20 19 18 17 17 17 17 17 17 16 15 15 15 16 16 16 16 16
22 23 23 23 23 23 22 22 22 23 24 25 26 27 28 29 30 31 33 33 33 32 31 28 25 22 19 18 18 19 20 20 21 23 24 25 22 19 20 20 20 20 20 20 18 13 7 7 7 6 10 22 29 31 31 31 31 31 31 31 31 30 28 26 26 25 24 23 22 20 19 18 18 18 18 18 17 17 16 15 15 15 16 16 16 17
21 23 24 24 24 24 23 22 22 23 24 25 26 27 28 28 29 30 32 33 34 35 34 33 31 28 25 20 17 18 20 22 23 23 24 26 25 22 22 21 21 21 19 18 16 13 7 8 9 9 8 14 21 27 30 31 31 31 31 31 31 30 30 28 28 27 26 25 23 22 20 20 19 19 19 19 18 17 17 16 15 15 15 15 16 16
20 21 23 23 24 24 24 23 23 23 24 25 26 27 27 28 28 29 30 32 33 35 36 36 36 34 32 29 25 23 24 26 26 25 25 26 26 24 22 21 23 23 20 19 17 14 10 10 11 12 11 11 13 18 25 30 31 30 30 30 31 30 30 29 29 28 27 26 25 23 22 21 21 21 21 20 19 18 17 16 15 15 15 15 15 14
19 20 21 22 23 24 24 23 22 22 23 24 24 25 26 26 27 28 29 31 32 34 35 36 37 37 36 35 33 31 30 29 28 27 27 27 27 25 23 22 24 25 23 20 18 17 14 11 10 11 10 10 10 13 19 27 29 28 28 29 30 30 30 30 29 29 28 28 26 25 23 22 21 22 21 20 19 18 17 16 16 15 14 14 13 13
18 20 21 22 22 23 24 24 23 22 22 22 22 23 25 27 28 29 30 31 32 33 34 35 36 37 37 37 36 34 32 30 29 29 28 28 28 27 25 24 24 26 26 24 22 20 17 13 8 6 8 10 11 13 18 24 27 27 27 28 29 30 30 30 30 29 29 28 27 26 24 22 22 22 22 21 20 19 18 17 16 16 15 13 13 11
18 19 21 21 22 22 23 24 24 24 23 23 24 25 27 28 30 31 32 32 33 34 34 35 36 37 37 38 37 35 33 31 30 30 29 29 29 28 27 25 25 26 27 26 24 22 20 17 13 10 9 9 10 13 17 23 26 28 27 26 27 28 30 31 31 30 30 29 28 26 24 23 22 23 23 22 21 21 20 19 18 18 17 15 14 12
18 20 21 22 22 23 24 24 24 25 25 25 26 26 27 28 29 30 32 33 33 34 34 34 35 36 36 36 36 35 34 32 31 30 30 29 29 28 27 26 25 26 26 26 25 23 22 20 18 17 15 13 12 13 15 20 25 28 27 22 20 22 28 30 31 31 30 29 29 27 26 24 23 24 24 24 23 23 22 21 20 19 19 18 17 15
19 20 21 22 23 23 24 25 25 25 25 25 26 26 26 26 27 28 30 31 32 32 33 32 32 33 33 34 34 34 33 32 31 31 30 30 29 28 28 26 26 26 26 26 25 24 23 21 20 18 17 17 16 15 16 19 24 27 27 23 21 23 27 29 31 31 30 30 29 28 26 25 25 25 25 25 24 24 23 22 21 20 20 20 19 19
20 20 22 22 23 24 24 25 25 25 25 25 25 26 26 27 27 27 28 29 29 30 30 30 29 29 28 29 30 31 31 30 30 30 30 30 29 29 28 27 27 26 26 25 24 24 23 22 21 19 18 18 17 15 15 18 23 26 26 25 24 23 24 27 30 30 30 30 29 28 27 26 26 26 26 25 25 24 22 21 21 21 21 21 20 20
21 21 22 23 24 24 24 25 25 25 24 24 24 25 26 27 27 27 27 26 27 27 28 27 27 25 24 24 26 27 28 29 29 29 29 29 29 29 29 28 28 27 26 25 23 22 23 22 21 20 20 20 19 17 16 16 20 24 25 25 24 20 15 22 28 30 30 29 29 28 27 27 27 27 26 26 25 24 23 21 21 20 20 20 20 20
22 22 23 24 24 23 23 23 23 23 22 22 23 24 25 26 27 27 26 25 25 25 25 25 25 23 21 20 21 23 25 27 28 28 29 29 29 29 29 29 29 28 27 25 24 22 21 21 21 21 21 21 20 18 17 17 19 22 24 25 25 23 20 23 28 31 30 29 29 28 28 27 27 27 26 26 25 24 23 22 21 21 20 19 19 18
20 20 20 18 18 17 18 20 21 21 21 19 20 24 24 25 25 25 23 23 23 23 23 23 20 18 16 17 17 18 21 23 25 26 28 28 28 29 29 30 30 29 28 27 25 24 22 21 20 21 21 21 20 19 18 18 19 21 23 25 25 25 26 27 30 32 31 29 29 29 28 28 27 27 26 26 26 25 24 23 23 22 21 20 19 18
17 16 16 16 16 17 18 19 21 22 22 23 23 23 23 24 24 23 23 22 22 22 22 22 19 15 13 13 15 16 16 17 20 23 25 27 27 28 29 30 30 29 28 27 26 25 25 24 23 22 20 20 19 19 19 20 20 21 22 24 24 24 24 24 27 31 33 31 30 29 29 28 28 27 26 26 26 26 25 25 24 23 23 22 21 19
15 16 17 17 18 18 19 20 21 22 22 21 21 22 23 23 23 23 22 22 22 21 21 21 20 18 16 15 15 15 15 15 16 19 22 24 26 27 28 28 28 28 27 26 25 24 23 24 24 24 22 19 17 17 19 21 22 22 23 24 24 23 22 22 25 29 33 32 31 30 30 29 28 27 26 26 27 26 26 25 25 24 24 23 22 21
18 18 18 19 19 19 20 20 21 21 20 19 20 20 21 22 22 22 22 22 22 21 20 19 18 17 16 16 17 17 17 17 17 18 20 22 23 25 26 26 26 25 25 24 23 22 21 21 22 24 24 21 18 16 18 20 22 23 24 25 24 23 22 23 25 28 30 32 32 32 31 31 29 28 27 26 25 26 26 26 26 26 25 24 23 22
20 19 19 19 19 19 19 20 20 20 19 18 18 18 20 21 22 22 22 23 22 21 19 18 17 16 15 15 16 17 18 18 17 18 19 21 22 23 24 24 24 23 22 21 20 20 19 19 20 21 23 22 21 19 20 21 22 23 24 25 24 23 22 23 24 26 28 30 31 32 32 31 31 30 28 26 24 24 25 26 27 27 27 26 24 23
20 20 19 19 19 19 20 20 20 19 18 18 17 18 19 20 22 23 23 23 21 20 19 19 18 17 15 15 16 16 17 17 17 17 19 21 22 23 23 24 23 22 19 17 16 16 15 15 16 19 21 22 21 21 21 22 22 22 23 23 23 23 22 22 23 26 27 29 31 31 31 30 29 29 28 25 24 23 24 26 27 28 28 27 26 24
21 21 20 20 20 20 20 20 19 18 18 18 18 18 18 18 20 21 22 21 20 19 19 19 19 18 16 16 16 16 17 18 17 18 19 21 22 23 23 24 23 21 18 14 11 11 10 9 8 11 16 19 21 21 22 24 24 22 20 21 22 22 21 21 23 25 27 28 30 31 30 29 28 27 27 25 22 21 21 23 26 29 29 29 27 25
Wind_Direction
259 264 267 267 265 264 264 264 263 261 260 260 260 260 259 257 254 251 249 248 248 250 252 254 255 257 259 260 260 260 260 258 257 256 255 255 254 254 255 256 257 259 261 264 265 266 268 269 269 268 265 263 261 259 256 255 255 254 253 250 246 242 238 238 242 246 246 245 247 248 246 243 241 239 235 231 226 223 220 208 193 181 171 169 170 170
256 259 261 261 259 256 256 259 258 257 257 257 257 257 257 256 254 253 252 252 253 254 256 258 259 259 260 259 259 258 257 255 254 253 253 253 253 253 254 255 257 259 261 264 265 266 267 268 268 265 261 260 258 256 255 254 254 253 251 250 247 244 241 242 243 239 231 232 238 243 245 243 239 235 230 225 218 211 206 201 195 188 182 178 176 175
256 254 254 256 255 253 252 255 256 255 256 257 257 256 256 255 254 255 255 256 257 258 259 260 260 260 259 259 258 257 256 254 253 252 252 252 252 253 254 256 257 259 262 264 265 266 267 267 267 263 258 255 254 253 253 254 255 254 252 250 247 244 243 242 239 231 223 225 232 238 240 240 235 228 222 219 214 208 203 200 198 195 192 188 185 182
256 251 251 253 253 252 251 252 253 254 255 256 257 258 257 257 256 257 257 258 259 260 261 262 261 261 260 259 258 257 256 255 254 253 253 253 253 254 255 257 258 260 262 263 264 265 264 263 262 260 256 253 251 251 251 252 253 252 250 246 243 241 239 237 230 220 215 220 230 236 237 237 232 222 210 206 204 201 199 197 195 193 191 189 185 182
255 251 251 252 252 252 253 251 250 250 253 254 256 258 259 260 260 260 260 260 261 261 262 262 262 262 261 260 259 258 258 257 256 256 255 255 256 256 257 258 259 259 260 261 261 260 258 256 255 253 252 251 249 247 246 246 246 246 244 240 237 236 234 228 220 212 209 216 226 235 237 238 234 220 200 190 186 186 184 183 183 183 183 180 178 177
258 255 255 253 253 254 254 252 250 250 251 253 256 258 260 261 262 263 264 264 263 263 263 262 262 262 261 261 261 260 260 260 259 258 258 258 258 258 259 259 259 259 258 257 257 255 252 250 248 248 249 249 247 244 242 241 240 239 237 235 233 232 230 223 215 210 210 213 221 231 237 239 235 223 203 185 175 171 170 169 172 174 174 172 170 170
259 256 255 254 255 255 254 253 253 252 252 254 257 259 261 262 264 265 265 265 265 264 264 263 262 261 261 261 261 261 261 261 261 261 261 260 260 260 260 259 259 257 256 255 254 252 249 246 245 245 247 246 244 241 239 237 235 233 232 231 232 231 228 221 215 211 213 215 219 227 234 237 236 228 216 200 186 175 169 168 170 172 172 170 169 167
256 253 251 250 251 253 253 253 253 253 253 254 256 260 263 265 266 267 267 267 266 266 265 264 263 261 260 260 260 261 261 262 262 262 262 261 261 260 259 258 257 256 255 254 253 251 247 243 241 242 244 243 241 238 236 234 232 230 230 231 233 232 228 221 216 214 216 219 222 226 231 235 235 232 225 216 206 195 185 179 176 176 177 176 174 173
250 249 247 246 245 246 248 251 252 252 252 252 253 256 260 264 267 269 270 270 269 269 268 268 267 265 263 262 261 261 262 262 262 262 262 261 259 258 257 255 255 254 253 253 253 250 245 240 238 239 240 240 238 237 235 233 231 230 231 234 235 232 227 221 217 216 218 222 225 227 229 231 231 230 227 222 216 210 203 196 190 186 185 184 183 183
247 245 245 246 245 244 244 247 250 251 251 251 252 254 256 258 263 267 270 271 272 272 272 271 271 271 270 268 266 265 264 263 262 261 260 258 257 255 253 252 252 252 252 253 252 249 243 237 235 235 237 237 236 235 235 233 232 231 233 235 235 230 224 220 217 217 219 222 224 225 226 225 224 223 221 218 215 212 209 205 200 196 194 193 193 194
246 244 243 244 245 244 242 243 245 247 248 249 251 254 255 255 255 259 264 268 270 272 273 273 274 275 276 277 276 273 270 267 263 260 258 256 254 252 251 250 250 250 251 251 250 247 241 236 233 234 235 235 234 233 232 232 231 232 234 234 232 227 222 218 217 218 219 221 222 223 223 222 220 218 215 213 211 209 207 205 202 201 200 200 202 205
245 243 241 242 241 239 238 237 239 241 243 243 244 248 252 252 251 250 252 260 265 267 270 273 275 277 278 280 282 281 278 273 269 265 261 257 253 251 249 249 249 249 249 248 246 243 238 233 232 233 234 233 230 229 228 228 229 230 231 230 227 223 219 217 217 218 220 221 222 223 222 222 220 218 216 214 212 211 209 207 205 204 204 205 207 210
244 243 242 240 236 233 231 230 231 233 233 232 234 240 247 250 250 248 248 254 259 263 266 270 274 277 279 280 281 281 279 276 274 270 266 260 255 251 249 248 247 247 247 245 242 238 234 231 230 231 230 228 225 224 223 224 226 227 227 226 223 220 218 216 216 218 220 222 223 224 224 223 222 221 220 218 217 216 215 213 211 210 209 209 210 211
241 240 238 236 234 231 226 222 223 226 228 231 235 240 246 249 250 249 248 252 257 261 264 266 270 274 277 278 279 278 277 275 273 271 267 261 255 251 248 246 245 244 244 242 238 233 229 226 226 226 225 223 220 219 219 221 223 224 224 222 220 218 216 216 216 217 219 222 224 224 223 223 223 223 222 221 220 219 218 217 215 214 213 212 211 209
237 236 234 234 233 231 227 223 224 227 231 235 239 242 246 248 248 245 243 246 252 258 261 264 269 273 276 276 277 277 276 272 269 268 266 262 256 250 247 245 243 241 240 237 233 228 224 223 223 222 221 219 218 217 218 220 222 222 221 219 217 216 215 215 215 216 219 221 223 224 223 223 223 223 222 221 220 219 218 216 215 213 212 211 208 205
238 236 235 236 236 234 231 226 225 228 232 235 238 240 240 242 242 240 237 240 245 249 252 259 268 274 277 277 276 275 272 267 263 261 262 263 258 251 246 244 241 239 236 233 229 225 221 221 221 221 221 219 219 220 221 222 222 221 219 217 216 215 214 214 214 215 218 220 222 223 223 223 222 222 220 219 218 216 215 214 212 210 208 206 203 201
237 235 236 237 238 237 234 229 227 228 231 233 235 236 236 237 238 236 233 233 235 238 241 246 255 274 280 281 279 274 267 261 258 258 259 261 260 253 245 241 237 234 230 228 226 224 221 219 220 221 222 223 224 224 225 225 223 221 218 215 214 214 213 213 213 215 216 219 221 222 221 221 221 220 218 216 215 214 212 211 209 208 206 205 205 206
237 234 235 237 241 241 235 230 229 229 229 230 232 235 237 238 237 235 231 228 227 229 234 237 239 244 260 276 278 275 270 264 261 259 258 260 261 257 246 238 233 230 226 224 224 224 223 221 221 222 224 226 227 228 228 226 222 219 215 213 212 212 213 213 213 214 216 218 220 221 220 219 219 218 217 215 214 213 212 211 209 209 210 212 215 221
243 235 232 238 243 243 238 232 229 227 226 227 229 232 234 234 233 230 227 226 226 226 227 229 235 241 249 258 263 266 269 268 266 261 254 257 263 262 249 237 230 227 225 224 223 223 224 225 226 227 228 230 230 229 227 224 220 216 212 210 209 210 211 212 213 214 216 217 219 219 219 218 217 216 216 215 214 213 213 213 213 215 219 224 231 238
257 246 240 240 242 242 238 233 229 228 228 229 230 230 229 229 227 225 223 223 223 224 224 225 230 237 245 252 256 258 257 257 258 255 252 257 263 264 255 239 228 225 224 224 223 222 223 225 227 230 231 232 232 230 226 221 217 213 210 208 208 209 210 211 213 214 216 217 218 217 216 216 215 215 215 215 215 216 217 218 221 225 231 237 243 249
270 259 249 243 241 241 240 236 234 234 232 229 227 224 224 225 224 223 222 221 220 220 219 221 226 233 240 244 249 252 251 249 247 248 252 259 262 262 258 245 232 226 225 224 222 221 221 222 225 228 230 231 230 227 223 218 214 211 209 208 208 209 210 211 213 214 215 216 216 215 215 215 215 216 216 217 219 220 223 225 229 234 239 245 249 251
278 274 267 256 247 243 243 241 239 236 231 226 221 218 219 221 221 220 220 218 217 217 218 223 228 234 240 242 246 250 251 248 245 245 250 259 259 257 256 248 237 229 226 225 223 220 219 219 222 224 227 227 226 223 219 215 212 209 208 208 208 209 209 211 212 213 214 214 214 214 214 215 217 219 220 222 223 225 228 230 233 236 239 243 245 247
281 283 282 274 261 251 245 243 240 236 231 227 225 224 226 225 223 222 221 220 219 220 223 226 231 236 240 241 245 248 250 249 246 242 242 248 256 255 250 246 237 230 227 227 224 221 218 217 218 220 221 222 220 218 215 212 209 208 208 208 208 209 209 211 212 212 213 213 213 214 215 216 218 221 223 225 226 227 227 227 227 228 229 231 234 235
282 282 282 281 275 264 254 247 243 240 237 234 234 235 235 235 234 233 232 231 229 228 228 229 230 232 234 236 239 242 245 247 244 239 234 241 250 252 246 240 232 227 228 228 226 222 219 216 216 215 215 214 214 213 211 209 208 207 207 208 208 209 209 210 211 212 213 213 213 214 215 217 220 222 223 224 224 223 221 219 217 217 218 220 222 222
281 281 280 280 279 277 272 265 259 254 250 247 244 242 241 240 240 239 238 235 232 228 224 220 219 222 227 230 233 236 240 242 240 235 227 237 247 248 242 236 228 224 224 227 226 223 219 216 214 211 209 207 207 208 208 206 206 206 207 208 208 209 210 210 211 212 213 213 214 215 216 217 219 219 219 219 219 216 213 211 209 209 210 212 213 211
278 279 279 279 278 278 278 277 274 271 266 262 257 251 247 243 239 235 231 227 222 216 210 207 210 217 221 223 227 232 235 237 236 232 226 230 238 242 238 234 227 221 221 224 225 223 219 217 214 210 206 203 202 203 205 204 204 204 206 207 208 209 210 211 211 212 213 213 214 214 215 215 215 215 214 213 212 210 207 205 204 204 204 204 203 201
281 281 280 279 276 274 273 272 271 270 268 266 263 258 252 243 235 228 224 219 214 208 203 206 212 217 217 217 222 228 231 232 232 231 229 228 232 239 236 232 225 219 217 220 223 222 219 216 214 211 206 201 199 200 203 203 203 204 205 207 208 209 210 211 211 212 213 213 213 213 213 211 210 209 208 208 207 205 203 202 201 199 197 195 194 191
287 286 284 282 278 274 271 268 266 264 263 261 259 255 248 237 227 221 220 218 213 208 206 209 211 212 215 216 219 223 225 227 229 230 229 223 225 234 232 228 222 215 211 215 219 219 216 215 214 212 207 202 198 197 201 203 203 203 205 206 208 209 210 210 211 212 213 212 212 211 210 207 205 203 203 203 202 201 200 198 195 192 190 189 187 185
290 291 290 288 284 279 274 269 265 263 262 260 256 250 243 234 226 222 222 219 213 209 211 213 215 216 216 213 213 215 219 223 227 228 225 216 219 229 226 219 213 209 206 205 210 213 213 214 214 212 208 203 198 196 197 200 202 202 204 205 207 209 210 210 211 211 212 212 211 209 207 203 200 199 199 199 199 198 197 194 190 187 187 186 185 183
295 295 294 292 289 284 278 272 268 265 263 260 256 251 246 239 232 228 226 221 214 209 213 215 216 213 206 193 192 205 215 221 226 225 218 209 211 220 216 207 205 205 202 193 187 205 216 217 215 212 208 203 198 195 194 196 198 200 201 202 204 207 209 210 210 211 211 210 209 208 204 201 197 196 196 196 197 196 193 191 188 187 186 185 185 184
302 300 297 294 291 287 281 276 272 269 265 261 256 253 250 246 240 235 229 223 216 212 214 214 213 207 197 176 155 185 216 219 222 222 214 206 207 214 210 199 200 204 204 197 185 50 227 223 218 214 210 204 199 196 194 193 195 198 198 198 199 202 205 207 209 209 209 209 208 205 202 198 195 193 193 194 194 193 191 190 191 190 187 186 184 183
298 297 296 295 293 288 283 278 274 271 267 262 258 253 251 248 245 240 233 226 220 217 215 214 211 206 201 202 205 208 216 215 218 219 213 205 206 212 212 203 200 203 206 203 199 191 181 202 209 209 209 206 201 198 195 193 194 196 197 197 197 198 201 203 205 205 205 205 204 203 199 196 193 191 191 193 192 191 190 191 194 194 191 188 183 181
292 292 292 293 292 288 283 278 274 271 268 264 260 255 251 248 245 242 237 232 226 222 218 215 211 207 206 208 212 217 220 218 218 217 212 205 203 206 209 205 201 200 202 202 202 200 190 180 181 196 204 205 203 200 196 193 193 194 196 197 197 197 198 198 199 200 201 200 199 198 195 192 190 189 190 191 191 191 190 192 196 198 196 191 184 180
289 288 288 288 288 285 282 277 273 270 267 264 260 256 251 248 245 242 239 235 231 227 224 220 215 210 207 209 214 219 221 220 220 217 211 205 201 202 204 201 199 197 196 198 201 203 199 184 171 172 194 202 203 203 199 195 193 193 195 197 198 197 196 195 196 197 198 197 195 193 191 188 187 188 190 191 192 191 191 193 198 201 199 195 189 185
288 286 285 283 282 282 280 276 273 269 267 263 260 256 252 249 245 242 239 236 234 232 230 227 224 219 213 210 212 216 218 218 218 216 210 205 202 202 201 200 199 197 193 196 199 199 190 182 175 168 169 189 200 204 203 199 195 193 194 196 198 199 198 196 196 196 197 196 194 192 190 187 186 187 190 191 192 192 191 193 197 201 203 199 195 192
287 285 283 280 279 277 277 275 272 268 264 260 257 255 252 249 246 243 240 238 236 234 233 232 230 228 225 221 219 219 220 221 219 216 211 208 206 204 200 201 202 200 196 196 198 199 192 182 177 173 166 170 189 203 206 204 199 195 193 194 197 199 200 199 198 197 196 194 193 192 191 189 187 187 189 192 193 192 191 190 194 200 202 201 200 200
282 282 280 278 276 274 273 272 270 266 261 257 253 252 251 249 247 244 241 240 238 237 235 233 232 231 231 231 230 229 228 227 224 219 215 213 211 208 204 205 206 204 199 196 197 198 195 185 178 177 176 176 180 191 201 205 203 199 196 194 194 196 198 199 200 199 197 195 194 193 193 190 188 188 189 190 191 191 191 190 192 197 201 201 201 202
277 277 277 276 273 271 269 268 267 265 262 258 255 253 253 252 249 246 243 242 241 240 237 235 233 233 233 234 234 234 233 230 227 222 219 216 214 212 209 207 208 208 207 203 199 195 193 189 183 185 195 196 191 188 192 198 200 201 199 196 194 193 195 197 198 199 198 196 195 195 194 192 189 188 188 189 190 190 190 189 190 192 195 196 196 197
272 273 274 273 270 268 266 264 264 264 264 263 262 261 259 256 253 249 245 243 242 242 240 238 236 235 234 234 233 232 231 229 228 225 222 219 216 214 212 209 208 209 210 208 204 199 195 196 197 199 199 199 197 193 191 193 196 198 198 196 194 193 194 195 196 197 198 197 195 194 193 192 190 188 188 189 190 191 190 189 189 191 192 192 191 191
269 271 271 270 268 266 264 262 262 263 265 266 267 266 262 257 251 247 244 242 241 241 240 239 237 235 234 232 230 229 227 227 227 225 223 221 219 217 214 212 210 209 209 206 204 201 198 200 203 203 199 197 195 191 188 191 194 195 193 191 193 195 194 193 194 196 197 197 195 193 192 191 190 189 189 191 192 193 192 190 190 192 194 193 189 185
268 269 270 269 268 266 264 263 264 265 266 267 267 265 260 256 250 245 241 238 237 236 235 234 232 230 229 227 226 225 224 224 224 224 223 222 221 219 217 214 213 211 208 204 203 202 202 203 204 204 201 200 197 191 189 191 193 193 190 189 192 195 194 192 192 194 196 197 197 195 193 191 189 190 191 193 195 196 195 192 192 194 196 198 194 187
266 267 268 268 267 266 266 266 266 266 267 267 265 262 260 256 250 244 238 234 233 232 231 228 225 222 220 220 220 220 220 220 220 221 222 222 222 220 218 216 214 212 208 203 200 201 203 204 204 203 201 199 195 191 191 192 193 193 192 192 191 191 192 193 193 193 193 195 196 196 194 191 190 190 192 195 197 198 197 195 195 197 199 200 199 196
263 265 265 265 264 263 263 264 264 264 265 265 264 262 260 255 249 242 236 232 230 228 227 223 219 216 212 212 213 214 215 215 215 216 218 220 221 221 219 216 214 212 208 201 197 198 202 204 204 204 201 198 193 189 188 189 191 192 194 193 188 182 182 192 194 192 192 193 195 195 194 192 191 191 193 195 197 198 198 198 199 200 202 202 201 200
260 260 261 261 262 264 266 267 266 265 264 264 263 261 259 254 247 239 233 230 228 225 222 218 214 211 209 208 207 208 209 210 210 210 212 215 218 219 218 216 215 213 210 202 197 195 197 200 203 204 202 197 193 190 189 187 188 190 192 192 190 187 187 192 192 191 190 192 194 195 194 193 191 191 194 196 198 199 199 200 201 203 204 204 202 200
257 257 259 262 268 273 276 276 274 271 268 266 262 259 256 250 243 235 229 226 224 221 217 211 206 203 206 207 206 204 205 204 204 205 206 209 212 214 215 213 212 212 210 207 203 199 195 195 197 199 199 195 192 190 189 187 187 188 191 192 193 195 197 196 193 191 189 190 192 194 194 193 192 191 193 196 198 199 200 200 202 203 204 203 203 202
259 266 272 277 280 282 280 279 275 271 267 265 260 255 251 245 238 232 227 224 220 217 213 208 204 201 204 204 202 200 199 199 199 200 200 202 204 207 209 210 210 209 208 206 206 205 202 198 194 191 189 188 189 191 192 188 185 185 188 190 192 194 196 197 195 193 192 191 191 192 194 193 191 191 192 194 196 198 199 201 202 203 204 203 203 204
277 280 282 282 282 281 279 277 273 268 262 256 251 248 245 240 233 228 224 221 218 214 210 207 205 206 207 203 198 195 193 193 195 196 196 196 197 200 202 204 205 206 205 203 202 203 204 203 199 192 185 180 181 186 190 191 188 186 186 188 189 190 191 194 196 196 195 193 192 192 192 191 190 189 190 192 194 195 198 200 203 204 205 205 205 205
277 277 277 278 279 278 277 275 271 266 259 250 245 242 239 234 229 223 219 218 215 211 205 202 203 206 208 205 200 195 193 192 191 191 190 190 191 193 195 196 196 197 197 197 196 196 198 201 200 197 192 186 182 181 183 187 188 187 187 187 187 188 190 193 196 196 196 195 194 193 191 189 188 187 188 188 190 192 195 198 201 204 205 205 206 207
271 270 272 273 275 275 274 272 270 266 259 251 245 240 235 231 225 219 216 215 212 208 201 199 200 203 205 203 199 195 191 189 188 187 186 185 184 185 186 186 186 185 184 185 186 187 189 192 195 197 197 194 189 184 181 183 185 187 188 187 187 188 189 192 194 195 194 194 194 194 192 191 190 190 187 185 185 189 193 196 200 202 203 204 206 207
269 268 269 269 270 270 270 269 267 264 261 256 249 242 235 228 222 218 215 214 211 207 203 200 199 200 202 200 194 189 185 183 182 182 183 183 181 179 177 177 175 171 167 165 166 169 171 176 185 192 197 199 196 190 184 181 182 184 185 186 188 188 188 188 190 192 192 192 193 193 191 191 191 191 189 185 184 186 190 195 199 201 202 202 204 205
266 265 264 263 263 262 263 263 261 260 258 255 250 242 234 225 219 216 214 214 212 210 206 203 202 201 200 197 190 184 182 180 180 180 182 182 180 176 173 172 168 163 156 151 148 148 149 153 168 186 195 197 199 199 193 184 180 178 179 183 186 187 186 185 187 189 190 190 191 190 189 188 188 189 188 185 183 183 187 193 198 200 200 201 202 203
Height
760 760 760 760 760 760 760 760 761 761 761 761 761 762 762 762 762 762 763 763 763 764 764 764 764 765 765 765 765 765 766 766 767 767 767 767 768 768 768 768 768 768 768 768 769 769 770 770 771 771 772 773 773 774 775 775 776 776 777 777 778 778 779 780 780 781 782 782 782 782 783 783 784 785 785 785 785 785 786 787 787 788 789 790 790 791
759 759 759 759 759 759 759 759 760 760 760 760 760 761 761 761 761 761 761 762 762 762 762 762 763 763 763 764 764 764 765 765 765 765 765 766 766 766 766 766 766 766 767 767 767 768 768 769 769 770 770 771 772 772 773 774 774 775 775 776 777 777 778 779 780 780 780 781 781 781 782 783 783 784 784 784 784 785 785 786 787 788 789 789 790 790
758 758 758 758 758 758 758 758 759 759 759 759 760 760 760 760 760 760 760 760 760 761 761 761 761 761 762 762 762 763 763 763 764 764 764 764 764 764 764 765 765 765 765 765 765 766 766 767 768 768 769 770 770 771 771 772 773 773 774 775 775 776 777 778 778 779 780 780 780 781 781 782 783 783 784 783 783 784 785 785 786 787 788 789 789 790
756 756 756 756 756 756 756 757 757 758 758 758 758 758 759 759 759 759 759 759 759 759 759 760 760 760 760 760 761 761 761 762 762 762 762 762 762 762 762 763 763 763 764 764 764 765 765 766 766 767 767 768 769 770 770 770 771 772 773 773 774 775 776 777 777 778 779 779 780 780 781 781 782 782 782 782 782 783 784 784 785 786 787 788 789 790
755 755 755 755 755 755 755 756 756 756 756 757 757 757 757 757 757 757 757 757 758 758 758 758 758 758 758 759 759 760 760 760 760 760 760 760 760 760 760 761 761 761 762 762 763 763 764 764 765 765 766 767 767 768 769 769 770 770 771 772 773 774 775 775 776 777 778 778 779 779 780 781 781 781 782 782 782 782 783 783 784 785 786 787 788 789
753 753 754 754 754 754 754 755 755 755 755 755 755 756 756 755 755 755 755 755 756 756 756 756 756 756 756 757 757 758 758 758 758 758 758 758 758 758 759 759 759 760 760 760 761 761 762 762 763 764 765 765 766 767 767 768 769 769 770 771 772 773 774 774 775 776 776 777 778 779 780 780 781 781 781 781 781 781 782 782 783 784 785 786 787 788
751 751 752 752 752 752 753 753 753 753 754 754 754 754 754 754 754 754 754 754 754 754 754 754 754 754 755 755 755 755 756 756 756 756 756 756 756 756 756 757 757 758 758 759 759 759 760 761 761 762 763 764 765 765 766 766 767 768 769 770 771 772 772 773 774 775 775 776 777 778 779 779 780 780 781 781 781 781 781 781 782 783 784 785 785 786
749 749 750 750 750 750 750 751 751 751 752 752 752 752 752 752 752 752 752 752 752 752 752 752 752 752 753 753 753 754 754 754 754 754 754 754 754 754 755 755 755 755 756 756 757 757 758 759 760 760 761 762 763 764 764 765 766 767 768 769 770 770 771 772 773 774 775 775 776 777 778 779 779 780 780 781 781 781 781 781 781 782 783 783 784 785
747 747 747 748 748 749 749 748 749 749 750 750 750 751 751 750 750 750 750 750 750 750 750 750 750 750 750 751 751 752 752 751 751 751 751 751 752 752 752 753 753 754 754 754 755 755 756 757 758 759 759 760 761 762 763 764 765 765 766 767 768 769 770 771 772 773 774 774 775 776 777 778 778 779 779 780 780 780 781 781 781 782 782 783 784 784
745 745 745 745 746 746 747 746 746 747 748 748 748 749 749 749 749 749 748 748 747 747 748 748 748 748 748 749 749 750 750 749 749 749 749 749 750 750 750 751 751 751 752 752 753 753 754 755 756 757 758 758 759 760 761 762 763 764 765 766 767 768 769 770 770 771 772 773 774 775 776 777 777 778 778 779 779 780 780 780 781 781 782 783 783 784
744 744 744 744 744 744 745 745 745 745 746 746 746 746 747 747 747 747 747 746 745 745 745 745 745 746 746 746 746 747 747 747 747 747 747 747 747 748 748 749 749 750 750 750 751 751 752 753 754 755 756 756 757 758 759 760 761 763 764 765 765 766 767 768 769 770 771 772 773 774 775 775 776 777 777 778 778 779 779 780 780 780 781 782 783 783
742 742 742 742 742 743 743 743 743 743 744 745 745 745 744 744 745 745 745 744 744 744 744 744 744 744 744 744 745 745 745 745 745 745 745 745 745 746 746 746 747 747 748 749 749 749 750 751 752 753 754 755 756 757 758 759 760 761 762 763 764 765 766 767 768 769 770 770 771 772 773 774 775 775 776 776 777 777 778 778 779 779 780 781 781 782
740 740 740 741 740 741 741 741 741 741 742 742 742 742 742 742 743 743 744 743 742 742 743 743 742 742 742 742 743 743 743 743 743 743 743 743 743 744 744 745 745 745 746 747 747 748 748 749 750 751 752 753 754 755 756 757 758 759 760 762 763 764 765 765 766 767 768 769 770 770 771 772 773 774 775 775 775 776 776 777 777 778 779 779 780 781
738 739 739 739 739 739 739 739 739 740 739 740 739 740 740 740 741 741 742 741 741 741 742 742 741 740 740 740 740 741 741 741 741 740 740 740 741 741 742 743 743 744 744 745 745 746 747 748 749 750 750 751 752 753 755 755 757 758 759 760 761 762 763 764 765 766 767 768 768 769 770 771 772 773 773 774 774 775 775 776 776 777 778 778 779 780
736 736 737 736 736 736 736 736 737 736 736 737 737 737 738 739 740 740 740 740 740 740 741 740 740 739 739 738 739 739 739 739 739 739 738 738 738 739 740 741 741 742 742 743 744 744 745 746 747 748 749 750 751 752 753 754 755 757 758 759 760 761 762 763 764 765 765 766 767 768 769 770 771 772 772 773 773 774 774 775 775 776 776 777 778 779
733 734 734 734 733 733 733 734 734 734 734 735 735 736 737 737 738 738 738 738 738 739 740 740 739 738 737 736 737 737 737 737 737 736 736 735 736 737 739 739 740 740 740 741 742 743 744 745 745 746 747 749 750 751 752 753 755 755 757 758 759 760 760 761 762 763 764 765 766 767 768 769 770 770 771 772 772 773 773 774 774 775 775 776 777 778
730 731 731 731 731 730 731 731 731 731 732 732 733 733 734 735 735 736 736 737 737 738 738 738 738 737 735 735 735 735 735 736 735 735 735 734 734 735 737 737 738 738 739 740 740 741 742 743 744 745 746 747 748 750 751 752 753 754 755 756 757 758 759 760 761 762 763 764 765 765 767 768 769 770 770 771 771 772 772 773 773 774 775 775 776 777
728 728 728 728 728 728 729 729 729 730 730 730 730 731 731 732 733 734 734 735 735 736 735 736 736 736 735 734 734 734 735 735 735 734 734 733 733 733 735 735 736 736 737 738 739 740 740 741 742 743 744 746 747 748 750 751 752 753 754 755 756 757 758 759 760 760 761 762 763 765 765 767 768 768 769 770 770 771 771 772 772 773 774 775 775 776
726 725 725 725 725 726 726 727 727 728 728 728 729 729 730 730 731 732 732 732 733 733 733 734 733 733 733 733 733 733 734 734 734 734 733 732 732 732 733 734 734 735 735 736 737 738 739 740 741 742 743 744 745 747 748 749 750 751 752 753 754 755 756 757 758 759 760 761 762 764 765 765 766 767 768 769 769 770 770 770 771 772 773 774 774 775
724 724 723 723 723 724 724 723 724 725 725 725 726 727 727 728 729 729 730 730 730 730 730 731 731 731 731 731 732 732 733 733 733 733 732 731 731 731 732 733 733 734 734 735 735 737 738 739 740 740 742 743 744 745 746 748 749 750 751 752 753 754 755 756 757 758 759 760 761 762 764 765 765 766 767 767 768 769 769 770 770 770 771 772 773 774
723 721 721 721 721 721 720 720 720 721 722 723 724 724 724 725 726 727 727 727 728 728 728 728 728 728 728 729 730 730 731 732 732 732 732 731 731 730 731 732 732 732 733 733 734 735 737 738 738 739 740 742 743 744 745 746 747 748 749 750 751 752 754 755 756 757 758 759 760 761 762 764 764 765 766 766 767 767 768 768 769 769 770 770 771 772
721 720 719 720 719 719 718 718 718 719 719 720 720 721 721 723 724 724 724 725 725 725 725 725 724 725 726 727 728 729 730 730 731 731 731 731 730 729 730 731 731 731 731 732 733 734 735 736 737 738 739 740 741 742 743 745 745 746 748 749 750 751 752 753 755 755 757 758 759 760 761 762 763 764 765 765 766 766 766 767 767 768 768 769 770 770
720 719 718 718 718 717 717 717 717 717 718 718 718 719 719 720 721 721 721 722 722 722 722 721 722 723 724 725 726 727 728 729 730 730 731 730 729 728 729 730 730 730 730 731 732 733 734 735 736 737 738 739 740 741 742 743 744 745 746 747 748 750 751 752 753 754 755 757 758 759 760 761 762 763 763 764 765 765 765 765 766 766 767 767 768 769
718 717 717 717 717 716 716 716 716 716 716 717 717 717 718 718 719 719 719 719 719 720 720 720 721 721 722 723 724 725 726 727 728 729 730 729 728 727 728 729 729 730 730 730 731 732 733 734 735 735 737 738 739 740 740 741 742 744 745 746 747 748 750 751 752 753 754 755 757 758 759 760 761 762 762 763 763 764 764 764 765 765 765 766 767 768
716 715 715 715 715 715 715 715 715 715 715 715 715 716 716 717 717 717 717 718 718 718 718 719 719 720 720 721 722 723 724 725 726 727 728 728 727 726 727 728 728 729 729 729 730 731 732 733 734 735 735 736 738 738 739 740 741 742 743 744 746 747 748 750 751 752 753 754 755 757 758 759 760 760 761 761 762 762 763 763 764 764 765 765 766 767
714 714 714 714 714 714 714 714 714 714 714 714 714 714 715 715 715 715 716 716 716 716 717 717 717 717 718 719 720 721 722 723 724 725 726 726 726 725 725 726 727 728 728 728 729 730 731 732 732 733 734 735 736 738 738 739 740 741 742 743 745 746 747 748 750 751 752 753 754 755 757 758 759 759 760 760 761 761 762 762 763 763 763 764 765 765
712 712 711 711 712 712 712 712 712 713 713 712 712 712 713 713 714 714 713 713 713 714 715 715 715 715 716 717 718 719 720 720 721 722 724 725 725 725 724 725 726 727 727 728 728 729 730 730 731 732 733 734 735 737 737 738 739 740 740 742 743 745 746 747 748 750 751 752 753 754 755 756 757 758 759 759 760 760 761 761 761 762 762 763 764 765
710 709 709 709 709 709 709 710 710 710 710 710 710 710 710 710 710 710 710 710 711 712 712 712 712 713 714 715 715 716 717 718 719 720 721 723 724 723 723 724 725 726 726 727 727 728 729 730 730 731 732 733 734 736 737 737 738 739 740 741 742 743 745 746 747 748 750 751 752 753 754 755 756 757 758 758 759 760 760 760 761 761 761 762 763 764
707 707 706 706 706 706 707 707 707 707 708 708 708 708 708 707 707 706 706 707 709 710 709 709 710 710 710 711 713 714 715 716 716 717 719 721 722 721 721 722 724 725 725 726 727 727 728 728 729 730 731 732 733 734 735 736 737 738 739 740 741 742 743 745 746 747 748 750 751 752 753 754 755 756 757 757 758 759 759 760 760 760 760 761 761 762
705 705 704 704 704 704 704 704 704 705 705 705 706 706 705 705 704 703 704 705 706 706 706 706 707 707 708 710 712 713 713 713 713 715 717 719 719 719 720 721 722 723 724 725 726 727 727 727 727 728 729 730 731 733 734 735 736 737 738 739 740 741 742 743 745 746 747 748 750 751 752 753 754 755 756 757 757 758 758 759 759 759 759 760 760 761
703 703 702 702 702 702 702 702 702 702 702 703 703 703 703 703 702 702 702 702 703 703 703 703 704 704 705 707 710 710 710 709 710 712 714 716 716 717 718 719 720 721 722 723 725 726 726 725 725 726 727 729 730 731 732 733 734 735 736 738 739 740 741 742 744 745 746 747 748 750 751 752 753 754 755 756 756 757 758 758 758 758 758 759 760 760
701 701 701 700 700 700 700 700 700 699 699 700 700 700 700 700 700 700 700 700 700 700 700 700 700 701 702 703 705 705 705 705 706 709 711 713 714 715 715 717 718 719 720 721 721 722 723 723 724 724 726 727 728 729 730 731 732 734 735 736 737 739 740 741 742 744 745 746 747 749 750 751 752 753 754 755 755 756 757 757 757 757 758 758 759 760
700 700 699 699 699 698 698 697 697 697 697 697 697 697 697 697 697 697 697 696 696 697 697 697 698 698 699 699 700 700 701 702 703 705 707 710 711 712 713 715 716 717 718 719 720 720 720 721 721 723 724 725 726 727 729 730 731 732 733 734 735 737 738 740 741 742 743 745 746 747 749 750 751 752 753 754 755 755 756 756 756 756 757 757 758 758
699 698 697 697 697 696 695 695 695 695 694 694 694 694 694 694 695 695 694 694 694 694 694 694 695 695 696 697 698 698 699 700 701 702 705 706 708 709 710 712 713 715 716 717 718 719 719 719 720 721 722 723 725 726 727 728 729 730 731 733 734 735 736 738 739 740 742 743 745 746 747 749 750 751 752 753 754 755 755 755 756 756 756 756 757 757
697 696 696 695 695 694 693 692 692 692 691 691 691 691 691 691 692 692 691 691 691 691 691 691 691 692 693 694 695 695 696 697 698 700 702 703 705 706 708 709 710 712 714 715 716 717 717 718 718 719 720 721 723 724 725 726 727 729 730 731 732 733 735 736 737 738 740 741 743 744 746 747 749 750 751 752 753 754 755 755 755 755 755 756 756 757
695 695 694 694 693 692 691 690 689 689 689 688 688 689 689 689 689 689 689 689 689 688 688 688 688 689 690 690 691 692 693 694 696 698 699 700 701 703 705 705 707 709 711 712 714 715 715 716 717 717 718 720 721 723 724 725 726 727 729 730 731 732 733 734 735 736 738 740 741 743 744 745 747 749 750 751 752 753 754 754 755 755 755 755 756 756
694 693 692 692 691 690 689 688 687 687 686 685 685 686 686 686 686 687 687 687 687 686 686 686 686 687 687 688 688 689 690 692 694 695 696 697 699 700 701 702 704 705 707 709 710 712 713 715 716 717 717 718 719 720 721 723 725 726 727 728 729 731 732 733 734 735 736 738 739 741 742 744 745 747 749 750 751 752 753 754 754 755 755 755 755 756
692 691 690 690 689 688 687 685 685 684 684 683 683 683 684 684 684 684 684 685 685 685 684 684 684 685 685 686 686 688 689 690 691 692 693 695 696 697 698 700 701 702 704 705 707 709 711 713 715 716 716 716 716 717 718 720 722 724 725 726 728 729 730 731 733 734 735 736 738 740 741 743 744 746 747 749 750 751 752 753 754 754 754 755 755 756
690 689 688 687 687 686 685 683 682 682 682 681 681 681 681 681 681 681 681 682 682 682 682 682 682 682 683 684 685 686 687 687 688 689 690 692 693 694 695 697 698 700 701 703 704 706 708 710 711 712 713 715 715 716 717 718 720 721 723 725 727 728 729 730 731 732 734 735 737 738 740 742 743 745 746 747 749 750 750 751 752 753 754 754 755 755
687 686 685 685 684 683 682 681 680 680 680 680 680 680 680 680 679 679 679 679 680 680 680 680 680 680 681 682 683 683 684 685 685 687 688 689 690 692 693 694 695 697 699 701 702 704 705 706 708 709 710 711 713 714 715 716 717 719 721 724 725 726 727 728 730 731 732 733 735 737 738 740 742 743 745 746 747 748 749 750 751 752 752 753 753 754
685 684 683 682 681 681 680 679 678 678 678 678 678 678 678 678 678 677 677 677 677 677 678 678 678 678 679 679 680 681 682 682 683 684 685 687 688 690 691 692 693 695 697 698 700 701 703 704 705 707 708 709 711 712 713 714 715 717 719 720 722 723 724 726 728 729 730 732 734 735 737 739 740 742 743 745 745 747 748 749 750 751 751 751 752 752
682 681 680 680 679 678 678 677 677 676 676 676 675 675 675 675 676 675 675 675 675 675 675 675 676 676 676 677 678 678 680 680 681 682 683 685 686 687 689 690 691 693 694 696 698 699 700 702 703 705 706 707 709 710 712 713 714 715 717 718 719 722 724 725 726 728 729 730 732 734 735 737 738 740 742 743 745 746 747 748 749 750 750 751 751 751
679 679 678 677 676 676 675 675 675 674 674 674 673 673 672 673 673 673 673 673 673 673 673 673 674 674 674 675 675 676 677 678 680 680 681 683 684 685 687 688 689 690 692 694 696 697 699 700 701 702 704 705 707 708 710 711 713 714 715 716 718 720 723 723 724 726 727 729 730 732 733 735 737 738 740 742 743 745 746 748 749 749 750 750 750 751
676 676 675 675 674 673 673 672 672 672 672 671 671 670 670 670 670 671 671 671 671 671 671 671 672 672 673 673 674 674 675 676 677 679 680 681 682 683 685 686 687 688 690 691 693 695 697 698 700 701 702 703 705 706 708 709 710 712 713 715 716 717 717 718 720 723 725 727 729 730 732 733 735 737 739 741 742 744 745 746 747 748 749 750 750 750
674 674 673 672 672 672 671 671 670 670 670 670 669 668 668 668 668 669 669 669 669 669 670 670 670 671 672 672 672 673 674 675 676 677 678 679 680 682 683 684 685 686 688 689 690 692 694 695 697 699 700 702 703 705 706 707 709 710 712 713 714 715 715 716 718 721 723 725 727 728 730 732 734 736 738 740 741 742 744 745 746 747 748 749 750 750
672 672 671 670 670 670 670 669 669 669 668 667 666 666 666 666 666 666 667 667 668 668 668 668 669 670 670 670 671 672 673 674 675 676 676 678 679 680 682 683 684 685 686 687 689 690 691 692 694 696 699 700 702 703 704 705 706 708 710 711 713 714 715 717 718 720 721 723 725 726 729 731 733 735 736 738 739 740 742 743 745 746 747 748 749 749
671 670 670 669 669 668 668 668 667 666 665 665 664 664 664 664 664 665 665 666 666 666 666 666 667 667 667 668 669 670 671 673 674 675 675 676 678 679 680 682 683 684 685 686 688 689 690 691 693 694 696 698 700 701 702 703 705 706 708 710 711 712 714 715 716 718 719 721 723 725 727 729 731 733 734 736 737 739 740 742 743 745 746 747 748 749
670 669 669 668 667 667 666 665 665 664 663 662 661 661 661 662 662 663 664 664 664 664 664 665 665 665 666 667 667 668 669 670 672 673 675 675 677 678 679 681 682 683 685 686 687 688 690 691 692 693 694 695 697 699 700 702 703 704 706 707 709 710 712 713 715 716 718 720 721 723 725 727 729 730 732 734 736 738 739 740 742 743 745 746 747 748
668 667 667 666 665 665 664 664 663 662 661 660 660 660 660 660 660 661 661 662 662 662 662 662 663 663 664 665 665 666 668 669 670 672 673 675 675 677 678 679 681 682 684 685 686 688 689 690 692 693 694 694 695 696 698 700 701 703 704 706 707 709 710 712 713 715 717 719 720 722 723 725 726 728 730 732 734 736 737 739 740 742 743 745 746 747
666 665 665 664 664 663 662 662 661 660 660 659 659 658 658 658 659 659 660 660 660 660 660 660 660 661 662 663 664 665 666 667 669 670 672 673 675 675 677 678 679 681 683 685 686 687 689 690 691 692 693 694 695 695 696 698 700 702 703 705 706 707 709 710 712 714 715 717 719 720 722 724 726 727 729 730 732 734 735 737 739 740 742 743 745 746
664 663 663 662 662 661 660 660 659 658 658 657 657 657 657 657 657 657 658 659 659 659 658 658 659 660 660 661 662 663 664 665 667 669 670 672 673 674 675 676 678 680 681 684 685 687 688 690 691 692 693 693 694 694 695 696 698 700 702 704 705 706 707 709 710 712 714 716 717 719 721 723 725 726 728 729 731 733 735 736 737 739 740 741 743 745